Location: Newark
(41.8083°N, 72.2500°W)
Time: 02:38:59
(UTC+00:00)

Altair - Visible Passes

Search period start: 30 November 2021 00:00
Search period end: 10 December 2021 00:00
Orbit: 1502 x 1682 km, 47.2° (Epoch: 29 November)

Date Brightness Start Highest point End Pass type
(mag) Time Alt. Az. Time Alt. Az. Time Alt. Az.
30 Nov 8.3 01:28:10 10° WNW 01:33:47 41° NW 01:33:47 41° NW visible
30 Nov 7.5 22:57:15 10° W 23:06:37 69° NNW 23:11:56 29° ENE visible
01 Dec 7.9 01:02:56 10° WNW 01:09:57 53° NW 01:09:57 53° NW visible
01 Dec 9.7 03:07:56 10° WNW 03:07:57 10° WNW 03:07:57 10° WNW visible
01 Dec 7.5 22:31:58 10° W 22:41:24 71° NNW 22:48:07 21° ENE visible
02 Dec 7.5 00:37:42 10° WNW 00:46:08 63° NNW 00:46:08 63° NNW visible
02 Dec 9.4 02:42:45 10° WNW 02:44:09 16° WNW 02:44:09 16° WNW visible
02 Dec 7.6 22:06:42 10° WSW 22:16:10 73° NNW 22:24:18 14° ENE visible
03 Dec 7.4 00:12:28 10° WNW 00:21:43 65° N 00:22:19 63° NNE visible
03 Dec 9.1 02:17:33 10° WNW 02:20:20 23° WNW 02:20:20 23° WNW visible
03 Dec 7.6 21:41:27 10° WSW 21:50:57 76° NNW 22:00:12 10° ENE visible
03 Dec 7.4 23:47:13 10° WNW 23:56:29 64° N 23:58:31 53° NE visible
04 Dec 8.7 01:52:22 10° WNW 01:56:33 31° WNW 01:56:33 31° WNW visible
04 Dec 7.5 23:21:57 10° WNW 23:31:15 63° N 23:34:45 40° ENE visible
05 Dec 8.2 01:27:10 10° WNW 01:32:47 43° WNW 01:32:47 43° WNW visible
05 Dec 7.5 22:56:41 10° WNW 23:06:00 63° N 23:11:01 30° ENE visible
06 Dec 7.7 01:01:58 10° WNW 01:09:02 58° WNW 01:09:02 58° WNW visible
06 Dec 7.6 22:31:24 10° W 22:40:45 63° N 22:47:18 21° ENE visible
07 Dec 7.3 00:36:46 10° WNW 00:45:20 78° NW 00:45:20 78° NW visible
07 Dec 9.5 02:41:55 10° WNW 02:43:21 15° WNW 02:43:21 15° WNW visible
07 Dec 7.6 22:06:08 10° W 22:15:31 63° N 22:23:38 14° ENE visible
08 Dec 7.2 00:11:34 10° WNW 00:20:55 83° NNE 00:21:40 77° E visible
08 Dec 9.1 02:16:40 10° WNW 02:19:42 22° W 02:19:42 22° W visible
08 Dec 7.7 21:40:51 10° W 21:50:16 63° N 21:59:24 10° ENE visible
08 Dec 7.3 23:46:21 10° WNW 23:55:44 80° NNE 23:58:04 56° E visible
09 Dec 8.7 01:51:25 10° WNW 01:56:06 31° W 01:56:06 31° W visible
09 Dec 7.3 23:21:08 10° WNW 23:30:32 77° NNE 23:34:32 39° E visible
